Location: Unnamed
(33.0780°N, 97.0417°W)
Time: 19:50:31
(UTC-05:00)

Hubble Space Telescope - Visible Passes

Search period start: 30 July 2021 00:00
Search period end: 09 August 2021 00:00
Orbit: 535 x 539 km, 28.5° (Epoch: 30 July)

Date Brightness Start Highest point End Pass type
(mag) Time Alt. Az. Time Alt. Az. Time Alt. Az.
30 Jul 1.5 20:56:51 10° WSW 21:00:42 38° S 21:04:32 10° ESE visible
30 Jul 3.0 22:38:30 10° WSW 22:39:53 16° SW 22:39:53 16° SW visible
31 Jul 1.7 20:45:54 10° WSW 20:49:40 35° S 20:53:26 10° SE visible
31 Jul 3.0 22:27:50 10° WSW 22:29:22 15° SW 22:29:22 15° SW visible
01 Aug 3.1 22:17:24 10° SW 22:18:51 13° SSW 22:18:51 13° SSW visible
02 Aug 3.3 22:07:53 10° SSW 22:08:11 10° SSW 22:08:23 10° SSW visible
